#timestamp,LO_Frequency,Hit,StdDev 
1524996015.1,286046998.3,N
1524996035.9,286047001.2,N
1524996055.7,286046996.9,N
1524996075.5,286046999.1,N
1524996095.4,286046999.3,N
1524996115.2,286046999.1,N
1524996135.1,286046998.9,N
1524996136.0,286046998.9,N
1524996155.8,286046998.9,N
1524996175.6,286046999.0,N
1524996195.5,286046998.1,N
1524996215.3,286046998.2,N
1524996235.1,286046998.5,N
1524996255.9,286046998.3,N
1524996275.7,286046998.1,N
1524996295.6,286046998.2,N
1524996315.4,286047000.2,N
1524996335.2,286047000.5,N
1524996355.1,286047000.6,N
1524996356.0,286047000.6,N
1524996375.8,286047002.5,N
1524996395.7,286047002.8,N
1524996415.5,286047000.6,N
1524996435.3,286047000.7,N
1524996455.2,286046998.1,N
1524996475.0,286046998.3,N
1524996475.9,286046998.3,N
1524996495.7,286046999.0,N
1524996515.6,286046998.8,N
1524996535.4,286046999.4,N
1524996555.3,286046999.2,N
1524996575.1,286046999.6,N
1524996576.0,286046999.6,N
1524996595.8,286046999.1,N
1524996615.7,286046999.4,N
1524996635.5,286046999.4,N
1524996655.3,286046996.6,N
1524996675.2,286046996.9,N
1524996695.0,286046999.5,N
1524996695.9,286046999.5,N
1524996715.8,286046998.9,N
1524996735.6,286046998.2,N
1524996755.4,286047001.2,N
1524996775.3,286046998.5,N
1524996795.1,286046998.7,N
1524996815.9,286047000.7,N
1524996835.7,286047001.0,N
1524996855.5,286047001.1,N
1524996875.4,286047001.0,N
1524996895.2,286047002.8,N
1524996915.0,286047004.3,N
1524996915.9,286047004.3,N
1524996935.8,286047001.4,N
1524996955.6,286047003.3,N
1524996975.5,286047001.5,N
1524996995.3,286047001.5,N
1524997015.1,286047002.3,N
1524997035.9,286047002.2,N
1524997055.7,286047004.3,N
1524997075.5,286047007.5,Y
1524997095.4,286047008.9,P
1524997115.2,286047006.7,N
1524997135.1,286047006.3,N
1524997136.0,286047006.3,N
1524997155.8,286047006.2,N
1524997175.6,286047008.6,Y
1524997195.5,286047001.9,P
1524997215.3,286047002.5,N
1524997235.2,286047001.8,N
1524997255.9,286047004.0,N
1524997275.7,286047000.1,N
1524997295.6,286047002.6,N
1524997315.4,286047001.6,N
1524997335.2,286047003.7,N
1524997355.1,286047003.3,N
1524997356.0,286047003.3,N
1524997375.8,286047002.5,N
1524997395.7,286047001.7,N
1524997415.5,286046999.8,N
1524997435.3,286047002.0,N
1524997455.2,286047002.2,N
1524997475.0,286047001.0,N
1524997475.9,286047001.0,N
1524997495.7,286047002.7,N
1524997515.6,286047002.5,N
1524997535.4,286046998.4,N
1524997555.3,286046998.6,N
1524997575.1,286047001.0,N
1524997576.0,286047001.0,N
1524997595.8,286046998.6,N
1524997615.7,286046999.0,N
1524997635.5,286046999.8,N
1524997655.3,286047002.8,N
1524997675.2,286047001.7,N
1524997695.0,286047003.9,N
1524997695.9,286047003.9,N
1524997715.8,286047003.4,N
1524997735.6,286047001.7,N
1524997755.4,286047000.8,N
1524997775.3,286047000.9,N
1524997795.1,286046998.8,N
1524997815.8,286047002.0,N
1524997835.7,286047000.3,N
1524997855.5,286047000.0,N
1524997875.4,286046996.8,N
1524997895.2,286046993.4,Y
1524997915.0,286046994.2,P
1524997946.0,286046995.9,E
1524997955.9,286046995.0,N
1524997975.7,286046999.5,P
1524997995.6,286046999.8,N
1524998015.4,286047002.6,N
1524998035.2,286047002.7,N
1524998055.1,286046998.5,N
1524998056.0,286046998.5,N
1524998075.8,286046996.9,N
1524998095.7,286046997.4,N
1524998115.5,286046998.0,N
1524998135.3,286046995.4,N
1524998155.2,286046997.8,N
1524998175.0,286046995.0,N
1524998175.9,286046995.0,N
1524998195.7,286046995.9,N
1524998215.6,286046993.6,N
1524998235.4,286046993.4,N
1524998255.3,286046995.4,N
1524998275.1,286046995.3,N
1524998276.0,286046995.3,N
1524998295.8,286046999.3,N
1524998315.7,286046996.8,N
1524998335.5,286046995.8,N
1524998355.3,286046995.5,N
1524998375.2,286046996.1,N
1524998395.0,286046994.1,N
1524998395.9,286046994.1,N
1524998415.8,286046993.8,N
1524998435.6,286046993.9,N
1524998455.4,286046993.0,N
1524998475.3,286046994.0,N
1524998495.1,286046996.2,N
1524998515.9,286046995.1,N
1524998535.7,286046995.4,N
1524998555.5,286046995.4,N
1524998575.4,286046997.2,N
1524998595.2,286046995.3,Y
1524998615.0,286047000.9,P
1524998615.9,286047000.9,N
1524998635.8,286047000.9,N
1524998655.6,286046999.0,N
1524998675.5,286046999.4,N
1524998695.3,286046999.3,N
1524998715.1,286046998.4,N
1524998735.9,286046998.5,N
1524998755.7,286047000.0,N
1524998775.5,286047001.2,N
1524998795.4,286046998.3,N
1524998815.2,286046997.3,N
1524998835.1,286046995.0,Y
1524998836.0,286046995.0,P
1524998855.8,286047000.4,N
1524998875.7,286046999.1,N
1524998895.5,286046997.3,N
1524998915.3,286046996.8,N
1524998935.2,286046997.5,N
1524998955.0,286046997.1,N
1524998955.9,286046997.1,N
1524998975.8,286046995.2,Y
1524998995.6,286046999.2,P
1524999015.4,286047001.0,N
1524999035.3,286046999.4,N
1524999055.1,286046996.9,N
1524999075.8,286046997.6,N
1524999095.7,286046997.9,N
1524999115.5,286046996.2,N
1524999135.4,286046996.0,N
1524999155.2,286046996.3,N
1524999175.0,286046996.0,N
1524999175.9,286046996.0,N
1524999195.8,286046993.8,Y
1524999215.6,286046999.4,P
1524999235.5,286046998.1,N
1524999255.3,286046998.8,N
1524999275.1,286046996.6,Y
1524999295.9,286046999.3,P
1524999315.7,286046998.8,N
1524999335.5,286046998.9,P
1524999355.4,286046998.3,Y
1524999375.2,286047000.7,P
1524999395.1,286047001.0,N
1524999396.0,286047001.0,N
1524999415.8,286047000.9,N
1524999435.6,286046998.5,N
1524999455.5,286047000.7,N
1524999475.3,286047000.0,N
1524999495.2,286047000.6,N
1524999515.9,286047001.0,N
1524999535.7,286046998.3,N
1524999555.6,286047000.3,N
1524999575.4,286047000.4,N
1524999595.2,286047001.3,N
